Hourly Weather Alkino-2

Today, 6 March, Saturday

Time Temperature Precipitation Wind Pressure Humidity
00:00 -16°C° 0 mm 2 mps 740 mmHg 90%
01:00 -17°C° 0 mm 2 mps 741 mmHg 90%
02:00 -17°C° 0 mm 2 mps 741 mmHg 90%
03:00 -17°C° 0 mm 2 mps 742 mmHg 90%
04:00 -17°C° 0 mm 2 mps 742 mmHg 92%
05:00 -17°C° 0 mm 2 mps 742 mmHg 93%
06:00 -18°C° 0 mm 3 mps 742 mmHg 93%
07:00 -18°C° 0 mm 3 mps 742 mmHg 94%
08:00 -17°C° 0 mm 3 mps 742 mmHg 93%
09:00 -15°C° 0 mm 3 mps 743 mmHg 92%
10:00 -14°C° 0 mm 4 mps 743 mmHg 91%
11:00 -12°C° 0 mm 4 mps 743 mmHg 90%
12:00 -11°C° 0 mm 4 mps 743 mmHg 89%
13:00 -10°C° 0 mm 5 mps 743 mmHg 88%
14:00 -10°C° 0 mm 4 mps 743 mmHg 88%
15:00 -10°C° 0 mm 4 mps 743 mmHg 88%
16:00 -10°C° 0 mm 4 mps 743 mmHg 88%
17:00 -10°C° 0 mm 3 mps 743 mmHg 90%
18:00 -10°C° 0 mm 2 mps 743 mmHg 92%
19:00 -12°C° 0 mm 2 mps 743 mmHg 93%
20:00 -13°C° 0 mm 2 mps 743 mmHg 94%
21:00 -13°C° 0 mm 2 mps 743 mmHg 95%
22:00 -13°C° 0 mm 2 mps 744 mmHg 95%
23:00 -14°C° 0 mm 2 mps 743 mmHg 95%

Tomorrow, 7 March, Sunday

Time Temperature Precipitation Wind Pressure Humidity
00:00 -15°C° 0 mm 2 mps 743 mmHg 94%
01:00 -15°C° 0 mm 2 mps 743 mmHg 94%
02:00 -14°C° 0 mm 1 mps 743 mmHg 94%
03:00 -15°C° 0 mm 1 mps 742 mmHg 93%
04:00 -16°C° 0 mm 1 mps 742 mmHg 93%
05:00 -16°C° 0 mm 1 mps 742 mmHg 94%
06:00 -17°C° 0 mm 1 mps 742 mmHg 95%
07:00 -18°C° 0 mm 0 mps 741 mmHg 95%
08:00 -16°C° 0 mm 1 mps 741 mmHg 94%
09:00 -15°C° 0 mm 1 mps 741 mmHg 92%
10:00 -14°C° 0 mm 1 mps 741 mmHg 90%
11:00 -13°C° 0 mm 1 mps 741 mmHg 89%
12:00 -14°C° 0 mm 2 mps 741 mmHg 88%
13:00 -13°C° 0 mm 2 mps 741 mmHg 87%
14:00 -13°C° 0 mm 2 mps 741 mmHg 88%
15:00 -12°C° 0 mm 2 mps 741 mmHg 88%
16:00 -12°C° 0 mm 2 mps 741 mmHg 89%
17:00 -14°C° 0 mm 2 mps 741 mmHg 90%
18:00 -15°C° 0 mm 2 mps 741 mmHg 92%
19:00 -17°C° 0 mm 2 mps 741 mmHg 93%
20:00 -17°C° 0 mm 2 mps 741 mmHg 94%
21:00 -18°C° 0 mm 3 mps 741 mmHg 94%
22:00 -19°C° 0 mm 3 mps 741 mmHg 95%
23:00 -19°C° 0 mm 3 mps 741 mmHg 95%

Day after tomorrow, 8 March, Monday

Time Temperature Precipitation Wind Pressure Humidity
00:00 -20°C° 0 mm 4 mps 740 mmHg 95%
01:00 -22°C° 0 mm 4 mps 740 mmHg 96%
02:00 -20°C° 0.1 mm 5 mps 739 mmHg 95%
03:00 -20°C° 0.1 mm 6 mps 739 mmHg 94%
04:00 -18°C° 0.1 mm 7 mps 738 mmHg 93%
05:00 -17°C° 0.4 mm 7 mps 737 mmHg 92%
06:00 -16°C° 0.4 mm 8 mps 736 mmHg 92%
07:00 -15°C° 0.4 mm 8 mps 736 mmHg 92%
08:00 -15°C° 0.2 mm 9 mps 735 mmHg 91%
09:00 -14°C° 0.2 mm 9 mps 735 mmHg 90%
10:00 -12°C° 0.2 mm 9 mps 735 mmHg 90%
11:00 -11°C° 0.1 mm 9 mps 735 mmHg 89%
12:00 -10°C° 0.1 mm 9 mps 735 mmHg 89%
13:00 -9°C° 0.1 mm 9 mps 735 mmHg 89%
14:00 -7°C° 0.1 mm 8 mps 735 mmHg 89%
15:00 -7°C° 0.1 mm 8 mps 735 mmHg 89%
16:00 -6°C° 0.1 mm 8 mps 735 mmHg 89%
17:00 -8°C° 0.3 mm 6 mps 735 mmHg 87%
18:00 -8°C° 0.3 mm 5 mps 735 mmHg 85%
19:00 -9°C° 0.3 mm 4 mps 735 mmHg 82%
20:00 -9°C° 0 mm 4 mps 735 mmHg 84%
21:00 -9°C° 0 mm 4 mps 735 mmHg 87%
22:00 -9°C° 0 mm 4 mps 736 mmHg 89%
23:00 -9°C° 0 mm 4 mps 735 mmHg 89%

9 March, Tuesday

Time Temperature Precipitation Wind Pressure Humidity
00:00 -10°C° 0 mm 4 mps 735 mmHg 89%
01:00 -10°C° 0 mm 4 mps 735 mmHg 89%
02:00 -11°C° 0.1 mm 4 mps 735 mmHg 90%
03:00 -11°C° 0.1 mm 4 mps 735 mmHg 90%
04:00 -11°C° 0.1 mm 4 mps 735 mmHg 91%
05:00 -12°C° 0 mm 4 mps 736 mmHg 91%
06:00 -14°C° 0 mm 4 mps 736 mmHg 92%
07:00 -15°C° 0 mm 5 mps 737 mmHg 92%
08:00 -15°C° 0 mm 5 mps 738 mmHg 91%
09:00 -15°C° 0 mm 5 mps 739 mmHg 90%
10:00 -14°C° 0 mm 5 mps 740 mmHg 89%
11:00 -14°C° 0 mm 5 mps 740 mmHg 88%
12:00 -13°C° 0 mm 5 mps 741 mmHg 87%
13:00 -13°C° 0 mm 5 mps 741 mmHg 86%
14:00 -13°C° 0 mm 5 mps 741 mmHg 86%
15:00 -13°C° 0 mm 5 mps 742 mmHg 86%
16:00 -13°C° 0 mm 5 mps 742 mmHg 85%
17:00 -14°C° 0 mm 4 mps 742 mmHg 88%
18:00 -15°C° 0 mm 3 mps 742 mmHg 90%
19:00 -17°C° 0 mm 3 mps 742 mmHg 92%
20:00 -17°C° 0 mm 2 mps 743 mmHg 93%
21:00 -18°C° 0 mm 2 mps 743 mmHg 94%
22:00 -19°C° 0 mm 2 mps 744 mmHg 95%
23:00 -20°C° 0 mm 2 mps 744 mmHg 96%

10 March, Wednesday

Time Temperature Precipitation Wind Pressure Humidity
00:00 -21°C° 0 mm 2 mps 744 mmHg 97%
01:00 -20°C° 0 mm 1 mps 744 mmHg 98%
02:00 -21°C° 0 mm 1 mps 744 mmHg 98%
03:00 -22°C° 0 mm 1 mps 744 mmHg 99%
04:00 -22°C° 0 mm 1 mps 744 mmHg 99%
05:00 -23°C° 0 mm 1 mps 744 mmHg 99%
06:00 -23°C° 0 mm 1 mps 744 mmHg 99%
07:00 -24°C° 0 mm 1 mps 744 mmHg 99%
08:00 -22°C° 0 mm 1 mps 744 mmHg 97%
09:00 -21°C° 0 mm 1 mps 744 mmHg 96%
10:00 -19°C° 0 mm 1 mps 744 mmHg 94%
11:00 -20°C° 0 mm 2 mps 744 mmHg 92%
12:00 -19°C° 0 mm 2 mps 744 mmHg 91%
13:00 -19°C° 0 mm 2 mps 744 mmHg 90%
14:00 -19°C° 0 mm 3 mps 743 mmHg 91%
15:00 -19°C° 0 mm 3 mps 743 mmHg 92%
16:00 -20°C° 0 mm 4 mps 743 mmHg 93%
17:00 -23°C° 0 mm 4 mps 743 mmHg 94%
18:00 -24°C° 0 mm 4 mps 743 mmHg 96%
19:00 -25°C° 0 mm 4 mps 744 mmHg 98%
20:00 -26°C° 0 mm 4 mps 744 mmHg 98%
21:00 -26°C° 0 mm 4 mps 744 mmHg 98%
22:00 -27°C° 0 mm 4 mps 745 mmHg 98%
23:00 -27°C° 0 mm 4 mps 745 mmHg 97%

11 March, Thursday

Time Temperature Precipitation Wind Pressure Humidity
00:00 -29°C° 0 mm 4 mps 745 mmHg 96%
01:00 -30°C° 0 mm 4 mps 745 mmHg 96%
02:00 -31°C° 0 mm 4 mps 745 mmHg 96%
03:00 -31°C° 0 mm 4 mps 746 mmHg 96%
04:00 -32°C° 0 mm 4 mps 746 mmHg 96%
05:00 -32°C° 0 mm 3 mps 747 mmHg 96%
06:00 -32°C° 0 mm 3 mps 747 mmHg 96%
07:00 -33°C° 0 mm 3 mps 747 mmHg 97%
08:00 -31°C° 0 mm 3 mps 748 mmHg 95%
09:00 -30°C° 0 mm 3 mps 748 mmHg 94%
10:00 -27°C° 0 mm 3 mps 748 mmHg 92%
11:00 -26°C° 0 mm 3 mps 749 mmHg 92%
12:00 -24°C° 0 mm 3 mps 749 mmHg 92%
13:00 -23°C° 0 mm 3 mps 749 mmHg 91%
14:00 -22°C° 0 mm 3 mps 749 mmHg 91%
15:00 -21°C° 0 mm 3 mps 750 mmHg 91%
16:00 -21°C° 0 mm 3 mps 750 mmHg 90%
17:00 -22°C° 0 mm 3 mps 750 mmHg 92%
18:00 -24°C° 0 mm 3 mps 750 mmHg 94%
19:00 -25°C° 0 mm 3 mps 751 mmHg 96%
20:00 -25°C° 0 mm 2 mps 751 mmHg 96%
21:00 -25°C° 0 mm 2 mps 752 mmHg 97%
22:00 -26°C° 0 mm 2 mps 752 mmHg 97%
23:00 -26°C° 0 mm 2 mps 753 mmHg 96%
Show more